Regional Weather Roundup
Issued by NWS San Angelo, TX

Home | Current Version | Previous Version | Text Only | Print | Product List | Glossary On
Versions: 1 2 3 4 5 6 7 8 9 10 11 12 13 14 15 16 17 18 19 20 21 22 23 24 25 26 27 28 29 30 31 32 33 34 35 36 37 38 39 40 41 42 43 44 45 46 47 48 49 50
000
ASUS44 KSJT 260402
RWRSJT
WEST CENTRAL TEXAS REGIONAL WEATHER ROUNDUP
NATIONAL WEATHER SERVICE SAN ANGELO TX
1100 PM CDT MON MAY 25 2015

NOTE: "FAIR" INDICATES FEW OR NO CLOUDS BELOW 12,000 FEET WITH NO
SIGNIFICANT WEATHER AND/OR OBSTRUCTIONS TO VISIBILITY.

TXZ049-054-064>066-071>073-076>078-098-099-113-114-127-128-139-140-
154-155-168>170-260500
...LOCATIONS ACROSS WEST CENTRAL TEXAS...

CITY           SKY/WX    TMP DP  RH WIND       PRES   REMARKS
SAN ANGELO     CLEAR     65  61  87 SE3       29.89R
ABILENE        CLEAR     63  58  83 SE9       29.89R
DYESS AFB      NOT AVBL
JUNCTION       CLEAR     68  65  90 E3        29.91R
SWEETWATER     NOT AVBL
BROWNWOOD      NOT AVBL
COLEMAN        NOT AVBL
SONORA         NOT AVBL
OZONA          NOT AVBL
BRADY          NOT AVBL
$$

TEXAS PANHANDLE/OKLAHOMA PANHANDLE

CITY           SKY/WX    TMP DP  RH WIND       PRES   REMARKS
AMARILLO       PTCLDY    55  50  83 SE9       29.91S
BORGER         MOCLDY    63  48  58 S12       29.89R
CANADIAN       NOT AVBL
DALHART        MOCLDY    59  50  72 SE12      29.93R
DUMAS          NOT AVBL
GUYMON         NOT AVBL
HEREFORD       NOT AVBL
PAMPA          NOT AVBL
PERRYTON       NOT AVBL
$$

SOUTHERN PANHANDLE/SOUTH PLAINS/ROLLING PLAINS

CITY           SKY/WX    TMP DP  RH WIND       PRES   REMARKS
LUBBOCK        PTCLDY    62  56  80 SE12      29.91R
SNYDER         NOT AVBL
CHILDRESS      CLEAR     62  53  72 E3        29.88R
SEMINOLE       NOT AVBL
$$

PERMIAN BASIN

CITY           SKY/WX    TMP DP  RH WIND       PRES   REMARKS
MIDLAND        CLEAR     66  53  63 SE8       29.90R
ODESSA         CLEAR     72  43  35 S3        29.91R
WINK           CLEAR     67  41  38 W9        29.88R
$$

FAR WEST/SOUTHWEST MOUNTAINS/TRANS PECOS

CITY           SKY/WX    TMP DP  RH WIND       PRES   REMARKS
ALPINE         NOT AVBL
DRYDEN           N/A     73  25  16 W9        29.86R
EL PASO        PTCLDY    78  24  13 NW14      29.95R
FORT STOCKTON  CLEAR     67  32  27 SW9       29.92R
GUADALUPE PASS CLEAR     67  23  19 SW23G31   30.03R
MARFA          CLEAR     54  37  54 N6        30.05R
PECOS          NOT AVBL
$$

DALLAS/FORT WORTH METROPLEX

CITY           SKY/WX    TMP DP  RH WIND       PRES   REMARKS
DFW AIRPORT    CLOUDY    60  60 100 S8        29.88R
FTW MEACHAM    CLOUDY    62  61  96 S5        29.87R
DAL-EXECUTIVE  CLOUDY    64  63  96 VRB3      29.90R
GRAND PRAIRIE  CLOUDY    64  64 100 S6        29.90R
ADDISON        NOT AVBL
MESQUITE       CLOUDY    64  63  96 SW5       29.91R
LANCASTER      CLOUDY    63  60  91 CALM      29.92R
$$

NORTH CENTRAL TEXAS

CITY           SKY/WX    TMP DP  RH WIND       PRES   REMARKS
SHRMAN/DENISON NOT AVBL
GAINESVILLE    NOT AVBL
BRIDGEPORT     CLOUDY    60  60 100 SW3       29.88R
DENTON         CLOUDY    61  60  97 S7        29.87R
WAXAHACHIE     CLOUDY    64  64 100 S5        29.91R
GRANBURY       NOT AVBL
$$

WESTERN NORTH TEXAS

CITY           SKY/WX    TMP DP  RH WIND       PRES   REMARKS
WICHITA FALLS  MOCLDY    61  58  90 SW6       29.85R
VERNON         NOT AVBL
BRECKENRIDGE   NOT AVBL
COMANCHE       CLOUDY    59  59 100 SE6       29.92R FOG
$$

CENTRAL AND SOUTH CENTRAL TEXAS

CITY           SKY/WX    TMP DP  RH WIND       PRES   REMARKS
AUSTIN/BERGSTM CLOUDY    68  68 100 S5        29.87R
WACO           CLOUDY    67  65  93 CALM      29.89R
HILLSBORO      NOT AVBL
TEMPLE         CLOUDY    64  61  88 N5        29.88R VSB 1/4
KILLEEN-GRAY   FOG       64  64 100 N5        29.87S VSB 3/4
FORT HOOD      NOT AVBL
GEORGETOWN     CLOUDY   N/A N/A N/A CALM      29.86S
LAGO VISTA     MOCLDY    68  67  95 W3        29.90R FOG
SAN MARCOS     NOT AVBL
NEW BRAUNFELS  CLOUDY    70  68  93 NE3       29.87R
RANDOLPH AFB   CLOUDY    70  70 100 E5        29.88R FOG
SAN ANTONIO    CLOUDY    73  68  84 NE5       29.88R
STINSON        CLOUDY    74  70  87 NE8       29.85R
PLEASANTON     NOT AVBL
LA GRANGE      NOT AVBL
GIDDINGS       NOT AVBL
$$

EAST TEXAS

CITY           SKY/WX    TMP DP  RH WIND       PRES   REMARKS
PARIS          CLOUDY    63  57  82 SW5       29.85S
CLARKSVILLE    NOT AVBL
TYLER          CLOUDY    65  61  87 S7G16     29.88F
LONGVIEW       LGT RAIN  64  62  93 E15G21    29.85F
PALESTINE      CLOUDY    65  64  97 SE3       29.90R
NACOGDOCHES    NOT AVBL
$$

TEXAS HILL COUNTRY AND EDWARDS PLATEAU

CITY           SKY/WX    TMP DP  RH WIND       PRES   REMARKS
LLANO          NOT AVBL
HORSESHOE BAY  FOG       66  65  99 CALM      29.90R VSB 1/4
KERRVILLE      NOT AVBL
FREDERICKSBRG  NOT AVBL
ROCKSPRINGS    NOT AVBL
HONDO          CLEAR     72  69  90 E14       29.89R
UVALDE         NOT AVBL
DEL RIO        CLEAR     77  66  68 E7        29.80R
$$

SOUTHEAST TEXAS

CITY           SKY/WX    TMP DP  RH WIND       PRES   REMARKS
COLLEGE STN    CLOUDY    67  65  93 E7        29.91R
CALDWELL       NOT AVBL
CROCKETT       NOT AVBL
BRENHAM        NOT AVBL
HUNTSVILLE     LGT RAIN  66  64  93 VRB3      29.92F
CONROE         TSTM      65  63  93 E7        29.89F
HOUSTON BUSH   TSTM      67  66  97 S8        29.97R
HOUSTON HOBBY  TSTM      68  66  93 NW10      30.00F FOG
PERLAND        TSTM      69  66  90 N14G31    29.99R
WHARTON        NOT AVBL
$$

THE UPPER TEXAS COAST

CITY           SKY/WX    TMP DP  RH WIND       PRES   REMARKS
ORANGE         RAIN      68  64  85 N9G25     30.08R
PORT ARTHUR    LGT RAIN  69  64  84 N21G30    30.02R
GALVESTON      CLOUDY    81  78  91 SE13      29.97R
ANGLETON       CLOUDY    78  77  96 S12       29.93R
BAY CITY       NOT AVBL
$$

TEXAS COASTAL BEND, RIO GRANDE PLAINS DEEP SOUTH TEXAS

CITY           SKY/WX    TMP DP  RH WIND       PRES   REMARKS
VICTORIA       CLOUDY    73  68  84 N13       29.92R
BEEVILLE       TSTM      79  79 100 SW16G24   29.88R
ROCKPORT       PTCLDY    82  77  84 S8G18     29.86S
PORT ARANSAS   NOT AVBL
PORT LAVACA    CLOUDY    79  77  94 SE12      29.87S
CORPUS CHRISTI PTCLDY    80  77  90 S15       29.86R
KINGSVILLE NAS MOCLDY    81  80  97 SE13      29.85R
COTULLA        PTCLDY    82  74  76 SE10      29.83R
LAREDO         CLEAR     83  77  82 SE9       29.84R
BROWNSVILLE    CLOUDY    82  77  84 S15       29.87R
PORT ISABEL    CLOUDY    81  77  88 S12       29.87R
HEBBRONVILLE   NOT AVBL
MCALLEN        CLOUDY    83  77  82 SE12      29.86R
WESLACO        NOT AVBL
FALFURRIAS     NOT AVBL
EDINBURG       NOT AVBL
$$


USA.gov is the U.S. government's official web portal to all federal, state and local government web resources and services.